Theta_e
350 350 349 349 350 351 354 357 356 355 354 354 354 354 353 353 353 351 351 351 350 350 350 349 349 349 350 351 352 352 350 350 351 351 351 350 350 350 351 351 352 352
351 351 350 351 351 352 355 357 357 356 353 353 353 353 353 353 353 352 351 352 350 350 350 349 349 350 350 352 352 353 352 351 351 351 351 352 351 352 352 352 353 353
352 351 350 351 351 351 353 356 357 356 354 352 352 352 353 352 353 353 353 351 350 350 350 349 349 349 350 352 352 353 352 352 352 352 351 352 353 353 354 354 354 355
351 350 350 350 349 350 352 354 355 356 355 354 352 352 353 352 352 354 353 351 350 350 350 350 350 349 350 351 351 353 353 352 352 352 351 352 353 355 355 355 355 355
350 351 351 349 349 351 352 353 354 355 354 355 354 354 353 353 353 353 353 352 351 350 350 350 351 351 350 350 352 353 353 353 352 351 351 351 353 354 354 354 355 354
352 352 351 350 349 351 353 353 354 354 353 353 354 354 354 352 352 352 353 353 351 349 350 350 350 352 351 351 352 352 352 352 352 351 351 351 352 353 353 354 355 354
353 353 353 351 350 350 352 353 354 355 354 353 353 353 354 353 351 351 351 352 350 349 350 349 348 349 350 351 352 352 352 352 351 351 351 351 352 354 353 354 355 356
351 352 352 352 352 352 353 352 353 354 354 354 353 352 352 352 351 350 350 350 351 350 350 348 348 348 348 349 351 351 352 352 352 352 352 352 353 354 354 354 355 356
351 352 352 352 352 352 353 353 353 353 353 354 353 351 350 350 350 349 349 350 352 351 350 348 347 348 349 348 349 351 352 352 352 352 352 353 354 355 354 355 355 356
351 351 352 352 352 352 353 354 353 353 353 354 353 352 350 347 347 347 349 352 354 354 352 351 349 349 349 348 347 350 352 352 352 353 354 354 355 356 356 356 356 356
350 351 352 352 353 353 352 353 353 353 353 354 354 353 351 348 345 345 348 352 354 354 355 354 351 349 348 348 348 347 349 353 352 353 354 355 355 357 356 356 356 356
348 350 351 351 352 352 352 352 352 352 352 353 353 352 353 352 350 347 348 351 353 355 356 354 352 349 348 348 348 347 346 351 354 353 354 355 355 356 356 356 357 356
347 348 350 349 349 349 350 350 351 350 350 351 351 351 352 354 354 353 353 354 355 356 356 354 352 350 350 349 349 347 347 349 352 354 354 354 355 356 356 357 357 356
347 347 348 348 347 347 347 348 349 349 349 350 350 350 351 353 354 355 355 356 356 356 355 355 352 351 352 350 349 348 348 349 351 353 354 354 355 355 356 356 357 357
347 347 348 347 348 347 346 347 347 348 349 350 350 350 351 353 354 355 355 355 355 355 355 355 354 353 353 352 350 349 349 351 352 354 354 354 355 356 356 357 357 357
347 348 349 348 348 348 347 347 347 347 347 348 349 349 351 352 352 354 354 354 354 354 354 354 354 355 355 354 351 350 350 352 354 356 355 355 355 356 356 357 357 357
347 348 348 349 350 350 350 349 347 347 347 347 348 349 349 350 351 352 352 353 354 353 354 354 355 356 356 355 353 351 351 352 353 355 356 357 356 356 357 357 357 357
345 346 347 348 349 349 350 350 349 349 348 347 347 348 349 349 349 350 350 351 352 353 353 354 355 355 356 355 354 354 355 355 354 353 355 357 358 357 357 357 357 356
344 345 346 347 347 347 347 349 350 350 350 349 349 349 350 350 349 350 350 350 350 352 353 354 354 355 355 356 356 355 355 357 356 354 355 355 356 356 356 355 356 355
343 344 345 347 348 347 346 347 348 350 350 349 348 348 349 350 350 349 349 350 350 351 352 354 353 354 354 354 355 355 354 354 355 354 354 354 354 354 354 354 354 354
344 344 345 346 348 348 347 347 347 348 349 349 348 347 348 349 349 349 349 349 351 351 352 353 353 353 353 354 354 353 353 352 353 353 353 352 353 353 354 354 353 353
344 345 346 346 346 346 347 346 346 346 347 349 350 350 349 348 347 348 348 348 349 350 350 351 352 352 352 352 353 352 351 351 352 351 351 351 352 352 353 353 352 352
344 345 346 345 344 345 346 346 346 345 344 345 348 350 350 348 346 346 346 347 347 348 349 349 349 350 350 350 351 350 350 350 350 350 350 350 351 351 352 352 352 352
344 345 346 344 343 344 344 345 346 345 343 343 346 348 348 346 346 346 346 346 346 347 347 348 348 348 348 348 348 348 348 348 348 349 350 350 350 350 351 351 352 352
344 344 345 344 343 343 344 345 345 345 344 344 345 347 347 345 346 346 346 346 346 346 347 346 346 347 347 347 348 348 348 347 348 349 350 350 350 349 350 351 352 352
342 342 343 343 343 344 344 344 344 344 344 345 346 347 346 347 347 347 347 346 346 347 347 348 348 348 349 349 349 348 348 347 348 349 349 349 349 349 349 351 352 352
Wind_Speed
21 21 19 20 21 21 20 19 18 18 18 17 15 14 13 15 21 27 28 26 26 27 28 28 27 26 26 23 20 21 24 24 22 18 14 15 18 18 17 16 15 14
20 20 18 18 20 21 20 20 21 22 22 21 18 15 14 12 14 20 25 26 27 29 30 29 28 27 27 25 22 21 22 23 22 19 15 14 16 18 18 17 17 16
19 19 18 19 21 22 22 23 23 23 24 24 21 17 17 16 14 14 16 18 22 24 27 29 30 29 29 27 25 24 24 24 23 19 16 15 15 17 18 17 18 18
18 19 18 18 21 23 25 25 25 24 22 22 23 20 18 18 17 16 14 13 15 18 21 25 28 30 31 29 27 27 26 26 25 22 18 17 16 17 17 17 18 18
17 19 19 19 20 21 22 24 25 24 22 21 23 23 21 19 19 20 20 18 16 16 18 21 25 29 31 31 30 29 27 26 26 24 21 20 19 18 18 17 18 18
14 17 18 17 18 19 20 23 24 24 22 22 22 23 23 21 20 22 23 23 21 19 19 20 21 25 29 31 31 30 29 27 26 25 24 23 22 21 19 18 19 19
14 15 16 16 16 17 20 23 24 24 23 22 22 23 22 20 21 22 22 23 23 23 23 22 21 23 25 30 32 31 30 29 28 26 25 25 23 22 22 20 20 20
15 16 16 17 16 17 19 21 23 24 25 24 23 24 23 21 20 20 22 22 20 21 24 25 24 24 27 29 32 33 33 31 30 28 26 26 25 24 24 23 23 23
15 16 16 18 18 19 20 21 22 24 26 26 25 24 24 24 22 21 21 20 18 20 23 25 27 26 26 28 31 33 34 33 31 30 28 27 27 27 26 26 25 25
16 15 16 18 20 21 22 22 23 24 27 28 27 25 25 26 26 24 22 20 19 21 21 23 26 27 26 26 28 31 33 33 31 30 30 30 29 29 28 27 27 26
17 16 16 18 20 21 22 23 25 26 27 29 29 27 26 27 29 28 26 24 23 23 21 22 25 28 27 24 25 30 32 32 32 31 31 31 31 31 30 29 28 26
18 18 18 17 18 20 22 23 25 26 28 29 30 29 28 28 28 29 29 27 26 25 24 23 25 29 29 26 26 29 31 31 32 32 32 33 32 32 31 30 29 28
18 17 18 18 18 19 21 22 23 24 26 27 28 29 29 27 25 26 27 27 27 26 25 24 25 28 29 27 27 29 29 31 33 34 33 33 33 33 32 31 31 29
18 16 17 18 18 18 19 20 21 21 22 23 24 26 27 28 26 25 25 25 26 27 26 25 25 25 25 26 27 28 29 30 34 37 35 34 34 33 32 32 31 30
18 16 15 16 17 18 18 18 19 20 20 20 22 24 26 27 26 25 24 24 25 27 27 26 27 27 27 27 27 28 28 26 31 36 35 33 34 33 33 33 32 31
19 17 16 16 16 17 18 18 18 19 20 20 21 24 27 27 25 24 24 23 23 25 26 27 28 29 28 28 28 29 28 25 26 31 32 33 33 33 33 33 32 31
19 17 16 16 16 16 17 17 17 18 19 20 20 22 25 26 25 24 25 24 24 24 25 27 29 29 27 27 27 28 28 27 27 28 30 32 33 33 33 33 32 32
19 18 17 17 16 16 16 17 17 17 18 19 20 21 23 24 24 24 24 24 23 23 24 26 28 29 27 26 25 25 25 27 29 28 29 30 31 32 33 33 32 32
19 18 18 17 16 15 16 16 16 17 17 18 19 20 20 21 21 22 22 22 22 22 24 26 28 28 27 26 27 26 25 26 28 29 28 29 30 30 30 31 31 31
20 19 19 19 17 15 15 15 15 16 17 18 19 19 19 19 20 20 20 20 21 22 24 26 27 27 25 25 26 28 28 28 28 28 28 29 30 30 30 30 30 29
20 20 20 20 19 18 16 15 15 15 15 16 17 18 18 19 19 19 20 20 21 22 23 25 26 26 25 24 24 26 28 27 27 28 29 29 29 29 29 30 30 29
20 20 20 20 20 19 18 17 16 15 14 13 14 16 17 18 18 19 20 20 21 21 22 24 25 25 25 24 23 23 24 24 25 27 29 30 29 29 29 30 30 29
20 19 20 21 21 20 19 18 17 17 16 14 13 14 15 15 17 19 19 19 20 20 21 23 24 23 21 21 22 21 21 21 23 25 27 28 29 29 29 29 29 29
19 19 20 21 21 20 19 18 17 17 17 16 14 14 15 13 12 15 17 18 19 20 21 23 23 20 17 17 17 18 19 22 23 24 24 26 28 28 27 27 27 27
17 18 19 20 21 20 19 18 17 16 15 15 14 14 15 13 11 13 16 17 18 20 20 20 21 19 16 15 16 16 18 21 22 23 24 25 26 26 26 27 27 26
17 17 18 19 19 20 19 18 17 14 12 12 12 12 13 15 14 14 16 16 16 17 17 18 19 18 16 16 16 17 18 20 21 22 24 25 24 23 23 24 26 26
Wind_Direction
247 244 250 262 259 247 241 239 237 237 239 239 240 242 242 239 238 237 235 233 233 235 237 238 240 241 239 240 246 243 236 237 242 248 253 245 235 230 226 228 231 233
260 253 248 251 252 249 246 243 241 238 235 231 230 235 241 240 234 235 238 236 235 236 238 238 239 240 239 238 242 244 240 240 241 239 236 230 225 224 223 226 232 237
267 266 259 250 246 247 248 248 247 245 243 237 230 233 243 242 235 237 241 238 240 243 241 239 238 238 239 237 239 244 244 244 240 230 224 221 217 219 221 225 232 235
271 272 267 256 248 243 242 247 250 250 250 245 237 237 243 244 244 249 249 239 240 250 250 245 242 238 238 237 237 240 244 243 236 228 226 222 217 219 221 225 232 235
278 274 268 258 249 242 241 244 249 249 249 248 246 245 246 249 251 252 253 248 242 250 257 255 251 244 238 237 236 237 240 238 232 229 231 228 223 225 227 230 234 238
282 277 272 262 250 244 244 245 247 248 246 247 251 254 253 254 255 256 257 253 247 251 258 259 260 255 242 234 233 235 237 235 232 232 234 234 234 233 234 235 234 237
285 280 275 266 252 243 245 248 249 247 243 242 245 250 253 254 255 257 259 256 251 254 259 263 272 277 264 244 234 234 236 235 234 235 236 237 238 236 234 235 234 236
291 284 276 269 259 248 246 249 251 247 242 239 237 237 239 243 248 252 256 259 258 254 253 254 261 275 276 261 245 235 232 234 235 235 238 239 237 236 234 232 233 235
300 287 278 271 262 252 248 247 247 245 240 237 236 231 226 229 235 242 249 254 254 250 248 247 250 259 265 261 254 243 231 231 235 235 236 238 235 235 235 232 233 236
307 293 281 272 263 255 251 247 245 244 239 237 238 234 226 223 224 230 238 240 238 240 244 243 244 249 250 249 255 257 242 231 233 235 234 235 235 235 236 235 236 238
311 300 290 279 269 261 256 253 250 248 245 243 241 239 234 226 220 220 225 228 228 230 234 235 234 238 244 242 248 262 259 241 231 232 234 234 235 236 237 238 239 239
316 305 296 287 277 268 265 262 258 254 252 250 247 243 239 231 223 219 220 223 226 229 231 232 230 232 238 238 237 250 261 254 238 233 234 236 235 236 238 239 240 241
321 311 301 292 284 276 272 269 266 260 257 256 254 249 242 237 229 223 221 222 224 228 230 230 230 231 235 239 238 237 243 250 247 239 235 237 236 236 237 237 239 241
329 320 309 300 293 286 280 274 270 267 263 263 262 255 247 243 237 231 230 230 229 231 231 230 229 231 234 239 240 233 229 238 245 241 236 235 235 235 236 236 238 240
332 328 320 311 302 293 287 280 274 270 268 267 265 261 256 252 248 243 239 236 235 235 235 234 233 234 235 233 231 228 225 230 238 238 234 233 232 232 233 234 236 239
330 330 326 321 313 301 292 286 279 274 269 266 265 264 262 258 253 249 244 238 235 235 237 239 240 240 240 236 231 228 227 228 232 233 231 230 229 229 229 231 233 237
329 329 325 322 319 312 303 294 287 281 273 267 264 262 261 258 253 249 247 244 240 238 238 239 241 241 241 239 234 231 231 232 233 233 231 229 227 226 227 229 231 235
331 328 324 322 319 316 313 307 297 288 279 271 265 261 259 256 251 249 249 249 246 243 242 243 243 243 242 238 233 229 229 231 233 233 231 230 229 228 229 230 233 236
332 329 326 325 322 319 317 312 303 294 285 275 268 264 260 256 255 255 254 253 249 243 242 244 246 246 244 241 236 232 229 230 231 231 230 232 233 233 233 233 235 237
329 329 329 327 326 325 317 306 300 295 289 283 277 271 265 262 262 262 258 253 248 243 242 245 248 250 250 248 244 240 237 235 235 235 234 236 238 238 237 236 236 238
328 328 328 327 327 325 316 303 294 290 286 284 281 276 271 269 266 262 258 252 247 244 244 246 249 251 252 251 248 244 240 238 239 239 237 236 236 237 238 239 239 239
327 326 324 325 325 322 316 308 300 292 284 277 275 273 272 273 270 267 263 258 253 248 244 246 249 250 249 249 248 245 242 240 240 239 236 233 233 235 238 242 242 239
327 326 322 323 323 320 316 312 308 302 293 285 278 270 263 263 268 272 270 265 261 256 252 253 255 254 251 249 248 247 244 241 240 237 233 232 233 234 236 239 238 235
328 325 320 321 323 321 317 312 311 310 305 298 290 277 267 263 266 272 273 269 265 261 259 259 260 260 257 252 248 245 242 241 241 237 234 233 232 231 232 233 234 234
328 325 320 320 321 320 318 313 309 311 310 304 293 284 284 285 280 276 276 274 270 267 263 261 262 264 262 255 250 246 241 240 238 234 231 232 232 231 230 229 231 233
324 323 321 320 318 316 317 314 308 306 305 298 290 288 292 295 292 288 286 282 278 275 269 264 263 264 262 259 255 249 242 237 233 228 226 227 228 226 223 223 225 229